Home   Weather   Svolvær   Past weeks

Flag for Norway Past Weather in Svolvær, Norway — Yesterday and Last 2 Weeks

Now
50 °F

Cool.


Feels Like: 47 °F
Forecast: 54 / 58 °F
Wind: 7 mph from East

Location: Skrova Fyr

Current Time: Sep 25, 2016 at 10:54:01 AM

Latest Report: Sep 25, 2016 at 10:00 AM


Visibility: N/A

Pressure: 29.80 "Hg

Humidity: 96%

Dew Point: 49 °F

Location of SvolværLocation

Past Weather in Svolvær — Graph

°F

Svolvær Temperature Yesterday

Maximum temperature yesterday: 55 °F (at 12:00 AM)
Minimum temperature yesterday: 51 °F (at 10:00 AM)
Average temperature yesterday: 53 °F

High & Low Weather Summary for the Past Weeks

 TemperatureHumidityPressure
High63 °F (Sep 14, 4:00 AM)99% (Sep 14, 11:00 AM)30.25 "Hg (Sep 14, 11:00 AM)
Low49 °F (Sep 16, 3:00 AM)45% (Sep 13, 6:00 PM)29.35 "Hg (Sep 11, 7:00 PM)
Average55 °F79%30.03 "Hg
* Reported Sep 10 9:00 AM — Sep 25 9:00 AM, Svolvær, Weather by CustomWeather, © 2016

Note: Actual official high and low records may vary slightly from our data, if they occured in-between our weather recording intervals... More about our weather records

Advertising

Svolvær Weather History for the Previous 24 Hours

Scroll right to see more
 ConditionsComfort  
Time TempWeatherWind HumidityBarometerVisibility
9:00 AM
Sun, Sep 25
49 °FCool.5 mph95%29.80 "HgN/A
8:00 AM50 °FCool.2 mph93%29.80 "HgN/A
7:00 AM51 °FCool.3 mph83%29.80 "HgN/A
6:00 AM52 °FCool.8 mph78%29.79 "HgN/A
5:00 AM52 °FCool.7 mph80%29.80 "HgN/A
4:00 AM51 °FCool.7 mph83%29.80 "HgN/A
3:00 AM52 °FCool.9 mph80%29.80 "HgN/A
2:00 AM53 °FCool.7 mph79%29.81 "HgN/A
1:00 AM53 °FCool.7 mph76%29.83 "HgN/A
12:00 AM53 °FCool.6 mph75%29.85 "HgN/A
11:00 PM
Sat, Sep 24
53 °FCool.2 mph78%29.87 "HgN/A
10:00 PM53 °FCool.3 mph82%29.88 "HgN/A
9:00 PM53 °FCool.5 mph81%29.88 "HgN/A
8:00 PM53 °FCool.6 mph81%29.89 "HgN/A
7:00 PM54 °FCool.7 mph78%29.89 "HgN/A
6:00 PM54 °FCool.7 mph80%29.90 "HgN/A
5:00 PM54 °FCool.9 mph75%29.91 "HgN/A
4:00 PM54 °FCool.9 mph76%29.90 "HgN/A
3:00 PM54 °FCool.9 mph81%29.91 "HgN/A
2:00 PM55 °FOvercast.10 mph77%29.91 "Hg47 mi
1:00 PM53 °FCool.3 mph89%29.91 "HgN/A
12:00 PM54 °FCool.7 mph89%29.90 "HgN/A
11:00 AM51 °FCool.6 mph95%29.90 "HgN/A
10:00 AM51 °FCool.3 mph94%29.90 "HgN/A
Weather by CustomWeather, © 2016

See weather overviewHow to use our weather pages